Time,TemperatureF,DewpointF,PressureIn,WindDirection,WindDirectionDegrees,WindSpeedMPH,WindSpeedGustMPH,Humidity,HourlyPrecipIn,Conditions,Clouds,dailyrainin,SoftwareType,DateUTC
2013-08-04 00:01:00,59.5,57.0,29.98,East,96,0.0,0.0,91,0.00,,OVC OVC///CB,0.17,WUHU216DAVISVP2,2013-08-04 04:01:00,
2013-08-04 00:02:00,59.4,57.2,29.98,East,96,0.0,0.0,92,0.00,,OVC OVC///CB,0.17,WUHU216DAVISVP2,2013-08-04 04:02:00,
2013-08-04 00:07:00,59.5,57.3,29.98,East,96,0.0,0.0,92,0.00,,OVC OVC///CB,0.00,WUHU216DAVISVP2,2013-08-04 04:07:00,
2013-08-04 00:12:00,59.4,57.2,29.98,East,96,0.0,0.0,92,0.00,,OVC OVC///CB,0.00,WUHU216DAVISVP2,2013-08-04 04:12:00,
2013-08-04 00:17:00,59.2,57.3,29.98,East,96,0.0,0.0,93,0.00,,OVC OVC///CB,0.00,WUHU216DAVISVP2,2013-08-04 04:17:00,
2013-08-04 00:22:00,59.1,57.2,29.98,East,96,0.0,0.0,93,0.00,,OVC OVC///CB,0.00,WUHU216DAVISVP2,2013-08-04 04:22:00,
2013-08-04 00:27:00,59.0,57.4,29.98,East,96,0.0,0.0,94,0.00,,OVC OVC///CB,0.00,WUHU216DAVISVP2,2013-08-04 04:27:00,
2013-08-04 00:32:00,58.8,57.5,29.98,East,96,0.0,0.0,95,0.00,,OVC OVC///CB,0.00,WUHU216DAVISVP2,2013-08-04 04:32:00,
2013-08-04 00:37:00,58.7,57.6,29.98,East,96,0.0,0.0,96,0.00,,OVC OVC///CB,0.00,WUHU216DAVISVP2,2013-08-04 04:37:00,
2013-08-04 00:42:00,58.6,57.5,29.98,East,96,0.0,0.0,96,0.00,,OVC OVC///CB,0.00,WUHU216DAVISVP2,2013-08-04 04:42:00,
2013-08-04 00:47:00,58.2,57.1,29.98,East,96,0.0,0.0,96,0.00,,OVC OVC///CB,0.00,WUHU216DAVISVP2,2013-08-04 04:47:00,
2013-08-04 00:52:00,58.1,57.0,29.98,East,96,0.0,0.0,96,0.00,,OVC OVC///CB,0.00,WUHU216DAVISVP2,2013-08-04 04:52:00,
2013-08-04 00:57:00,57.9,57.1,29.98,East,96,0.0,0.0,97,0.00,,OVC OVC///CB,0.00,WUHU216DAVISVP2,2013-08-04 04:57:00,
2013-08-04 01:02:00,57.8,57.0,29.98,East,96,0.0,0.0,97,0.00,,OVC OVC///CB,0.00,WUHU216DAVISVP2,2013-08-04 05:02:00,
2013-08-04 01:07:00,57.4,56.6,29.98,East,96,0.0,0.0,97,0.00,,OVC OVC///CB,0.00,WUHU216DAVISVP2,2013-08-04 05:07:00,
2013-08-04 01:12:00,57.3,56.5,29.98,East,96,0.0,0.0,97,0.00,,OVC OVC///CB,0.00,WUHU216DAVISVP2,2013-08-04 05:12:00,
2013-08-04 01:17:00,57.1,56.3,29.98,East,96,0.0,0.0,97,0.00,,OVC OVC///CB,0.00,WUHU216DAVISVP2,2013-08-04 05:17:00,
2013-08-04 01:22:00,57.0,56.2,29.98,East,96,0.0,0.0,97,0.00,,OVC OVC///CB,0.00,WUHU216DAVISVP2,2013-08-04 05:22:00,
2013-08-04 01:27:00,56.9,56.1,29.98,East,96,0.0,0.0,97,0.00,,OVC OVC///CB,0.00,WUHU216DAVISVP2,2013-08-04 05:27:00,
2013-08-04 01:32:00,56.9,56.4,29.99,East,96,0.0,0.0,98,0.00,,OVC OVC///CB,0.00,WUHU216DAVISVP2,2013-08-04 05:32:00,
2013-08-04 01:37:00,56.9,56.4,29.98,East,96,0.0,0.0,98,0.00,,OVC OVC///CB,0.00,WUHU216DAVISVP2,2013-08-04 05:37:00,
2013-08-04 01:42:00,56.9,56.4,29.98,East,96,0.0,0.0,98,0.00,,OVC OVC///CB,0.00,WUHU216DAVISVP2,2013-08-04 05:42:00,
2013-08-04 01:47:00,56.8,56.3,29.98,East,96,0.0,0.0,98,0.00,,OVC OVC///CB,0.00,WUHU216DAVISVP2,2013-08-04 05:47:00,
2013-08-04 01:52:00,56.7,56.2,29.98,East,96,0.0,0.0,98,0.00,,OVC OVC///CB,0.00,WUHU216DAVISVP2,2013-08-04 05:52:00,
2013-08-04 01:57:00,56.5,56.0,29.98,East,96,0.0,0.0,98,0.00,,OVC OVC///CB,0.00,WUHU216DAVISVP2,2013-08-04 05:57:00,
2013-08-04 02:02:00,56.2,55.7,29.98,East,96,0.0,0.0,98,0.00,,OVC OVC///CB,0.00,WUHU216DAVISVP2,2013-08-04 06:02:00,
2013-08-04 02:07:00,56.3,55.8,29.98,East,96,0.0,0.0,98,0.00,,OVC OVC///CB,0.00,WUHU216DAVISVP2,2013-08-04 06:07:00,
2013-08-04 02:12:00,56.3,55.8,29.98,East,96,0.0,0.0,98,0.00,,OVC OVC///CB,0.00,WUHU216DAVISVP2,2013-08-04 06:12:00,
2013-08-04 02:17:00,56.4,55.9,29.98,East,96,0.0,0.0,98,0.00,,OVC OVC///CB,0.00,WUHU216DAVISVP2,2013-08-04 06:17:00,
2013-08-04 02:22:00,56.3,55.8,29.98,East,96,0.0,0.0,98,0.00,,OVC OVC///CB,0.00,WUHU216DAVISVP2,2013-08-04 06:22:00,
2013-08-04 02:27:00,56.2,55.7,29.98,East,96,0.0,0.0,98,0.00,,OVC OVC///CB,0.00,WUHU216DAVISVP2,2013-08-04 06:27:00,
2013-08-04 02:32:00,56.0,55.5,29.98,East,96,0.0,0.0,98,0.00,,OVC OVC///CB,0.00,WUHU216DAVISVP2,2013-08-04 06:32:00,
2013-08-04 02:37:00,55.9,55.4,29.98,East,96,0.0,0.0,98,0.00,,OVC OVC///CB,0.00,WUHU216DAVISVP2,2013-08-04 06:37:00,
2013-08-04 02:42:00,55.9,55.7,29.98,East,96,0.0,0.0,99,0.00,,OVC OVC///CB,0.00,WUHU216DAVISVP2,2013-08-04 06:42:00,
2013-08-04 02:47:00,55.8,55.3,29.98,East,96,0.0,0.0,98,0.00,,OVC OVC///CB,0.00,WUHU216DAVISVP2,2013-08-04 06:47:00,
2013-08-04 02:52:00,55.7,55.5,29.98,East,96,0.0,0.0,99,0.00,,OVC OVC///CB,0.00,WUHU216DAVISVP2,2013-08-04 06:52:00,
2013-08-04 02:57:00,55.9,55.7,29.98,East,96,0.0,0.0,99,0.00,,OVC OVC///CB,0.00,WUHU216DAVISVP2,2013-08-04 06:57:00,
2013-08-04 03:02:00,56.2,56.0,29.99,East,96,0.0,0.0,99,0.00,,OVC OVC///CB,0.00,WUHU216DAVISVP2,2013-08-04 07:02:00,
2013-08-04 03:07:00,56.2,56.0,29.99,East,96,0.0,0.0,99,0.00,,OVC OVC///CB,0.00,WUHU216DAVISVP2,2013-08-04 07:07:00,
2013-08-04 03:12:00,56.2,56.0,29.99,East,96,0.0,0.0,99,0.00,,OVC OVC///CB,0.00,WUHU216DAVISVP2,2013-08-04 07:12:00,
2013-08-04 03:17:00,56.2,56.0,29.99,East,96,0.0,0.0,99,0.00,,OVC OVC///CB,0.00,WUHU216DAVISVP2,2013-08-04 07:17:00,
2013-08-04 03:22:00,56.2,56.0,29.99,East,96,0.0,0.0,99,0.00,,OVC OVC///CB,0.00,WUHU216DAVISVP2,2013-08-04 07:22:00,
2013-08-04 03:27:00,56.2,56.0,29.98,East,96,0.0,0.0,99,0.00,,OVC OVC///CB,0.00,WUHU216DAVISVP2,2013-08-04 07:27:00,
2013-08-04 03:32:00,56.5,56.3,29.98,East,96,0.0,0.0,99,0.00,,OVC OVC///CB,0.00,WUHU216DAVISVP2,2013-08-04 07:32:00,
2013-08-04 03:37:00,56.6,56.4,29.98,East,96,0.0,0.0,99,0.00,,OVC OVC///CB,0.00,WUHU216DAVISVP2,2013-08-04 07:37:00,
2013-08-04 03:42:00,56.9,56.7,29.99,East,96,0.0,0.0,99,0.00,,OVC OVC///CB,0.00,WUHU216DAVISVP2,2013-08-04 07:42:00,
2013-08-04 03:47:00,57.0,56.8,29.99,East,96,0.0,0.0,99,0.00,,OVC OVC///CB,0.00,WUHU216DAVISVP2,2013-08-04 07:47:00,
2013-08-04 03:52:00,57.2,57.0,29.99,East,96,0.0,0.0,99,0.00,,OVC OVC///CB,0.00,WUHU216DAVISVP2,2013-08-04 07:52:00,
2013-08-04 03:57:00,57.5,57.3,30.00,NNE,25,2.0,3.0,99,0.00,,OVC OVC///CB,0.00,WUHU216DAVISVP2,2013-08-04 07:57:00,
2013-08-04 04:02:00,57.5,57.3,30.00,West,264,0.0,5.0,99,0.00,,OVC OVC///CB,0.00,WUHU216DAVISVP2,2013-08-04 08:02:00,
2013-08-04 04:07:00,57.5,57.3,30.00,WNW,289,0.0,5.0,99,0.00,,OVC OVC///CB,0.00,WUHU216DAVISVP2,2013-08-04 08:07:00,
2013-08-04 04:12:00,57.6,57.4,30.00,WNW,284,0.0,4.0,99,0.00,,OVC OVC///CB,0.00,WUHU216DAVISVP2,2013-08-04 08:12:00,
2013-08-04 04:17:00,57.7,57.5,30.00,WNW,282,1.0,1.0,99,0.00,,OVC OVC///CB,0.00,WUHU216DAVISVP2,2013-08-04 08:17:00,
2013-08-04 04:22:00,58.0,57.8,30.01,NW,320,10.0,10.0,99,0.00,,OVC OVC///CB,0.00,WUHU216DAVISVP2,2013-08-04 08:22:00,
2013-08-04 04:27:00,58.4,57.9,30.01,WNW,290,5.0,10.0,98,0.00,,OVC OVC///CB,0.00,WUHU216DAVISVP2,2013-08-04 08:27:00,
2013-08-04 04:32:00,58.8,58.3,30.01,North,357,3.0,10.0,98,0.00,,OVC OVC///CB,0.00,WUHU216DAVISVP2,2013-08-04 08:32:00,
2013-08-04 04:37:00,59.0,58.2,30.01,NNE,13,5.0,10.0,97,0.01,,OVC OVC///CB,0.01,WUHU216DAVISVP2,2013-08-04 08:37:00,
2013-08-04 04:42:00,59.1,58.6,30.01,NNE,27,5.0,10.0,98,0.02,,OVC OVC///CB,0.02,WUHU216DAVISVP2,2013-08-04 08:42:00,
2013-08-04 04:47:00,59.2,58.7,30.00,East,79,3.0,10.0,98,0.02,,OVC OVC///CB,0.02,WUHU216DAVISVP2,2013-08-04 08:47:00,
2013-08-04 04:52:00,59.3,58.8,30.01,NW,314,0.0,10.0,98,0.02,,OVC OVC///CB,0.02,WUHU216DAVISVP2,2013-08-04 08:52:00,
2013-08-04 04:57:00,59.5,59.0,30.01,ENE,58,2.0,9.0,98,0.02,,OVC OVC///CB,0.02,WUHU216DAVISVP2,2013-08-04 08:57:00,
2013-08-04 05:02:00,59.6,59.1,30.01,NNE,32,1.0,9.0,98,0.02,,OVC OVC///CB,0.02,WUHU216DAVISVP2,2013-08-04 09:02:00,
2013-08-04 05:07:00,59.7,59.2,30.01,NE,48,3.0,7.0,98,0.02,,OVC OVC///CB,0.02,WUHU216DAVISVP2,2013-08-04 09:07:00,
2013-08-04 05:12:00,59.8,59.3,30.01,NW,313,2.0,6.0,98,0.02,,OVC OVC///CB,0.02,WUHU216DAVISVP2,2013-08-04 09:12:00,
2013-08-04 05:17:00,59.8,59.3,30.02,NNW,333,0.0,6.0,98,0.02,,OVC OVC///CB,0.02,WUHU216DAVISVP2,2013-08-04 09:17:00,
2013-08-04 05:22:00,59.8,59.3,30.02,North,6,2.0,5.0,98,0.02,,OVC OVC///CB,0.02,WUHU216DAVISVP2,2013-08-04 09:22:00,
2013-08-04 05:27:00,59.8,59.3,30.02,North,6,0.0,4.0,98,0.02,,OVC OVC///CB,0.02,WUHU216DAVISVP2,2013-08-04 09:27:00,
2013-08-04 05:32:00,59.8,59.3,30.02,NNE,27,0.0,4.0,98,0.02,,OVC OVC///CB,0.02,WUHU216DAVISVP2,2013-08-04 09:32:00,
2013-08-04 05:37:00,59.7,59.2,30.03,NNE,23,0.0,4.0,98,0.02,,OVC OVC///CB,0.03,WUHU216DAVISVP2,2013-08-04 09:37:00,
2013-08-04 05:42:00,59.8,59.3,30.03,ENE,73,0.0,4.0,98,0.01,,OVC OVC///CB,0.03,WUHU216DAVISVP2,2013-08-04 09:42:00,
2013-08-04 05:47:00,59.8,59.3,30.03,NE,56,0.0,4.0,98,0.01,,OVC OVC///CB,0.03,WUHU216DAVISVP2,2013-08-04 09:47:00,
2013-08-04 05:52:00,59.8,59.3,30.03,North,11,0.0,4.0,98,0.01,,OVC OVC///CB,0.03,WUHU216DAVISVP2,2013-08-04 09:52:00,
2013-08-04 05:57:00,59.8,59.3,30.03,North,11,0.0,3.0,98,0.01,,OVC OVC///CB,0.03,WUHU216DAVISVP2,2013-08-04 09:57:00,
2013-08-04 06:02:00,59.8,59.6,30.03,North,11,0.0,1.0,99,0.01,,OVC OVC///CB,0.03,WUHU216DAVISVP2,2013-08-04 10:02:00,
2013-08-04 06:07:00,59.8,59.6,30.03,North,11,0.0,1.0,99,0.01,,OVC OVC///CB,0.03,WUHU216DAVISVP2,2013-08-04 10:07:00,
2013-08-04 06:12:00,59.8,59.6,30.03,North,11,0.0,1.0,99,0.01,,OVC OVC///CB,0.03,WUHU216DAVISVP2,2013-08-04 10:12:00,
2013-08-04 06:17:00,59.8,59.6,30.03,North,11,0.0,0.0,99,0.01,,OVC OVC///CB,0.03,WUHU216DAVISVP2,2013-08-04 10:17:00,
2013-08-04 06:22:00,59.7,59.5,30.03,NNE,12,0.0,0.0,99,0.01,,OVC OVC///CB,0.03,WUHU216DAVISVP2,2013-08-04 10:22:00,
2013-08-04 06:27:00,59.6,59.4,30.03,NNE,12,0.0,0.0,99,0.01,,OVC OVC///CB,0.03,WUHU216DAVISVP2,2013-08-04 10:27:00,
2013-08-04 06:32:00,59.5,59.3,30.03,North,11,0.0,0.0,99,0.01,,OVC OVC///CB,0.03,WUHU216DAVISVP2,2013-08-04 10:32:00,
2013-08-04 06:37:00,59.4,59.2,30.03,NNE,12,0.0,0.0,99,0.00,,OVC OVC///CB,0.03,WUHU216DAVISVP2,2013-08-04 10:37:00,
2013-08-04 06:42:00,59.3,59.1,30.03,NNE,12,0.0,0.0,99,0.00,,OVC OVC///CB,0.03,WUHU216DAVISVP2,2013-08-04 10:42:00,
2013-08-04 06:47:00,59.1,58.9,30.04,NNE,12,0.0,0.0,99,0.00,,OVC OVC///CB,0.03,WUHU216DAVISVP2,2013-08-04 10:47:00,
2013-08-04 06:52:00,59.0,58.8,30.03,North,11,0.0,0.0,99,0.00,,OVC OVC///CB,0.03,WUHU216DAVISVP2,2013-08-04 10:52:00,
2013-08-04 06:57:00,58.9,58.7,30.04,NNE,12,0.0,0.0,99,0.00,,OVC OVC///CB,0.03,WUHU216DAVISVP2,2013-08-04 10:57:00,
2013-08-04 07:02:00,59.0,58.8,30.04,North,11,0.0,0.0,99,0.00,,OVC OVC///CB,0.03,WUHU216DAVISVP2,2013-08-04 11:02:00,
2013-08-04 07:07:00,59.1,59.1,30.04,North,11,0.0,1.0,100,0.00,,OVC OVC///CB,0.03,WUHU216DAVISVP2,2013-08-04 11:07:00,
2013-08-04 07:12:00,59.3,59.3,30.03,North,11,0.0,1.0,100,0.00,,OVC OVC///CB,0.03,WUHU216DAVISVP2,2013-08-04 11:12:00,
2013-08-04 07:17:00,59.6,59.6,30.04,North,11,0.0,1.0,100,0.00,,OVC OVC///CB,0.03,WUHU216DAVISVP2,2013-08-04 11:17:00,
2013-08-04 07:22:00,59.9,59.9,30.04,NW,316,0.0,1.0,100,0.00,,OVC OVC///CB,0.03,WUHU216DAVISVP2,2013-08-04 11:22:00,
2013-08-04 07:27:00,60.0,59.8,30.04,WNW,295,0.0,2.0,99,0.00,,OVC OVC///CB,0.03,WUHU216DAVISVP2,2013-08-04 11:27:00,
2013-08-04 07:32:00,60.2,60.0,30.04,WNW,287,0.0,3.0,99,0.00,,OVC OVC///CB,0.03,WUHU216DAVISVP2,2013-08-04 11:32:00,
2013-08-04 07:37:00,60.4,60.2,30.04,NNW,342,2.0,4.0,99,0.00,,OVC OVC///CB,0.03,WUHU216DAVISVP2,2013-08-04 11:37:00,
2013-08-04 07:42:00,60.6,60.4,30.05,NW,325,3.0,4.0,99,0.00,,OVC OVC///CB,0.03,WUHU216DAVISVP2,2013-08-04 11:42:00,
2013-08-04 07:47:00,60.7,60.5,30.05,NNW,335,2.0,4.0,99,0.00,,OVC OVC///CB,0.03,WUHU216DAVISVP2,2013-08-04 11:47:00,
2013-08-04 07:52:00,60.7,60.5,30.05,North,356,2.0,4.0,99,0.00,,OVC OVC///CB,0.03,WUHU216DAVISVP2,2013-08-04 11:52:00,
2013-08-04 07:57:00,60.9,60.7,30.05,NW,317,1.0,4.0,99,0.00,,OVC OVC///CB,0.03,WUHU216DAVISVP2,2013-08-04 11:57:00,
2013-08-04 08:02:00,61.2,61.0,30.05,NW,305,0.0,3.0,99,0.00,,OVC OVC///CB,0.03,WUHU216DAVISVP2,2013-08-04 12:02:00,
2013-08-04 08:07:00,61.5,61.3,30.05,WNW,287,0.0,3.0,99,0.00,,OVC OVC///CB,0.03,WUHU216DAVISVP2,2013-08-04 12:07:00,
2013-08-04 08:12:00,61.8,61.3,30.05,NNE,13,4.0,4.0,98,0.00,,OVC OVC///CB,0.03,WUHU216DAVISVP2,2013-08-04 12:12:00,
2013-08-04 08:17:00,62.2,61.7,30.05,NNE,14,2.0,5.0,98,0.00,,OVC OVC///CB,0.03,WUHU216DAVISVP2,2013-08-04 12:17:00,
2013-08-04 08:22:00,62.3,61.5,30.06,ENE,66,0.0,5.0,97,0.00,,OVC OVC///CB,0.03,WUHU216DAVISVP2,2013-08-04 12:22:00,
2013-08-04 08:27:00,62.2,61.1,30.06,NNE,18,4.0,6.0,96,0.00,,OVC OVC///CB,0.03,WUHU216DAVISVP2,2013-08-04 12:27:00,
2013-08-04 08:32:00,62.5,61.4,30.06,NNE,18,3.0,6.0,96,0.00,,OVC OVC///CB,0.03,WUHU216DAVISVP2,2013-08-04 12:32:00,
2013-08-04 08:37:00,62.6,61.2,30.06,WSW,250,2.0,5.0,95,0.00,,OVC OVC///CB,0.03,WUHU216DAVISVP2,2013-08-04 12:37:00,
2013-08-04 08:42:00,63.3,61.9,30.06,NNE,30,2.0,4.0,95,0.00,,OVC OVC///CB,0.03,WUHU216DAVISVP2,2013-08-04 12:42:00,
2013-08-04 08:47:00,63.7,61.4,30.06,NNE,23,0.0,6.0,92,0.00,,OVC OVC///CB,0.03,WUHU216DAVISVP2,2013-08-04 12:47:00,
2013-08-04 08:52:00,64.0,61.7,30.06,ENE,61,0.0,6.0,92,0.00,,OVC OVC///CB,0.03,WUHU216DAVISVP2,2013-08-04 12:52:00,
2013-08-04 08:57:00,64.2,60.7,30.06,NNE,27,3.0,6.0,88,0.00,,OVC OVC///CB,0.03,WUHU216DAVISVP2,2013-08-04 12:57:00,
2013-08-04 09:02:00,64.2,60.7,30.06,NE,51,3.0,7.0,88,0.00,,OVC OVC///CB,0.03,WUHU216DAVISVP2,2013-08-04 13:02:00,
2013-08-04 09:07:00,63.9,60.1,30.07,WNW,291,4.0,7.0,87,0.00,,OVC OVC///CB,0.03,WUHU216DAVISVP2,2013-08-04 13:07:00,
2013-08-04 09:12:00,63.9,59.8,30.07,NNE,18,3.0,8.0,86,0.00,,OVC OVC///CB,0.03,WUHU216DAVISVP2,2013-08-04 13:12:00,
2013-08-04 09:17:00,64.1,59.6,30.07,North,359,5.0,8.0,85,0.00,,OVC OVC///CB,0.03,WUHU216DAVISVP2,2013-08-04 13:17:00,
2013-08-04 09:22:00,64.1,59.6,30.07,NE,46,3.0,8.0,85,0.00,,OVC OVC///CB,0.03,WUHU216DAVISVP2,2013-08-04 13:22:00,
2013-08-04 09:27:00,64.4,59.6,30.07,North,8,3.0,8.0,84,0.00,,OVC OVC///CB,0.03,WUHU216DAVISVP2,2013-08-04 13:27:00,
2013-08-04 09:32:00,64.5,58.7,30.07,ENE,65,8.0,9.0,81,0.00,,OVC OVC///CB,0.03,WUHU216DAVISVP2,2013-08-04 13:32:00,
2013-08-04 09:37:00,64.5,58.4,30.07,WNW,282,3.0,11.0,80,0.00,,OVC OVC///CB,0.03,WUHU216DAVISVP2,2013-08-04 13:37:00,
2013-08-04 09:42:00,64.9,58.1,30.07,NNE,32,4.0,11.0,78,0.00,,OVC OVC///CB,0.03,WUHU216DAVISVP2,2013-08-04 13:42:00,
2013-08-04 09:47:00,65.0,57.5,30.07,NNW,327,3.0,12.0,76,0.00,,OVC OVC///CB,0.03,WUHU216DAVISVP2,2013-08-04 13:47:00,
2013-08-04 09:52:00,64.8,58.0,30.07,NW,316,3.0,12.0,78,0.00,,OVC OVC///CB,0.03,WUHU216DAVISVP2,2013-08-04 13:52:00,
2013-08-04 09:57:00,64.4,57.6,30.07,NNW,327,0.0,10.0,78,0.00,,OVC OVC///CB,0.03,WUHU216DAVISVP2,2013-08-04 13:57:00,
2013-08-04 10:02:00,65.0,58.5,30.07,NNE,18,2.0,10.0,79,0.00,,OVC OVC///CB,0.03,WUHU216DAVISVP2,2013-08-04 14:02:00,
2013-08-04 10:07:00,65.5,58.3,30.07,WNW,300,1.0,9.0,77,0.00,,OVC OVC///CB,0.03,WUHU216DAVISVP2,2013-08-04 14:07:00,
2013-08-04 10:12:00,66.0,58.8,30.07,NNE,13,3.0,8.0,77,0.00,,OVC OVC///CB,0.03,WUHU216DAVISVP2,2013-08-04 14:12:00,
2013-08-04 10:17:00,65.9,58.7,30.07,North,8,3.0,6.0,77,0.00,,OVC OVC///CB,0.03,WUHU216DAVISVP2,2013-08-04 14:17:00,
2013-08-04 10:22:00,65.3,57.4,30.07,NNW,328,2.0,9.0,75,0.00,,OVC OVC///CB,0.03,WUHU216DAVISVP2,2013-08-04 14:22:00,
2013-08-04 10:27:00,65.4,58.2,30.07,WNW,292,1.0,9.0,77,0.00,,OVC OVC///CB,0.03,WUHU216DAVISVP2,2013-08-04 14:27:00,
2013-08-04 10:32:00,65.5,57.3,30.07,North,356,5.0,8.0,74,0.00,,OVC OVC///CB,0.03,WUHU216DAVISVP2,2013-08-04 14:32:00,
2013-08-04 10:37:00,65.6,57.7,30.08,NE,39,3.0,9.0,75,0.00,,OVC OVC///CB,0.03,WUHU216DAVISVP2,2013-08-04 14:37:00,
2013-08-04 10:42:00,65.8,58.3,30.07,NE,55,6.0,10.0,76,0.00,,OVC OVC///CB,0.03,WUHU216DAVISVP2,2013-08-04 14:42:00,
2013-08-04 10:47:00,66.4,58.5,30.07,WNW,302,4.0,10.0,75,0.00,,OVC OVC///CB,0.03,WUHU216DAVISVP2,2013-08-04 14:47:00,
2013-08-04 10:52:00,66.5,57.5,30.07,WSW,257,0.0,9.0,72,0.00,,OVC OVC///CB,0.03,WUHU216DAVISVP2,2013-08-04 14:52:00,
2013-08-04 10:57:00,66.3,57.7,30.07,NNW,335,7.0,10.0,73,0.00,,OVC OVC///CB,0.03,WUHU216DAVISVP2,2013-08-04 14:57:00,
2013-08-04 11:02:00,66.4,58.1,30.07,NW,319,3.0,10.0,74,0.00,,OVC OVC///CB,0.03,WUHU216DAVISVP2,2013-08-04 15:02:00,
2013-08-04 11:07:00,67.1,58.4,30.07,NNW,330,5.0,11.0,73,0.00,,OVC OVC///CB,0.03,WUHU216DAVISVP2,2013-08-04 15:07:00,
2013-08-04 11:12:00,67.2,58.5,30.07,ENE,58,4.0,12.0,73,0.00,,OVC OVC///CB,0.03,WUHU216DAVISVP2,2013-08-04 15:12:00,
2013-08-04 11:17:00,67.3,58.3,30.08,NW,308,4.0,12.0,72,0.00,,OVC OVC///CB,0.03,WUHU216DAVISVP2,2013-08-04 15:17:00,
2013-08-04 11:22:00,67.6,58.9,30.08,North,11,10.0,14.0,73,0.00,,OVC OVC///CB,0.03,WUHU216DAVISVP2,2013-08-04 15:22:00,
2013-08-04 11:27:00,67.9,58.5,30.08,WNW,287,2.0,14.0,71,0.00,,OVC OVC///CB,0.03,WUHU216DAVISVP2,2013-08-04 15:27:00,
2013-08-04 11:32:00,67.9,59.2,30.08,WNW,293,3.0,13.0,73,0.00,,OVC OVC///CB,0.03,WUHU216DAVISVP2,2013-08-04 15:32:00,
2013-08-04 11:37:00,68.5,59.4,30.08,SW,229,4.0,13.0,72,0.00,,OVC OVC///CB,0.03,WUHU216DAVISVP2,2013-08-04 15:37:00,
2013-08-04 11:42:00,68.7,58.8,30.08,West,278,3.0,11.0,70,0.00,,OVC OVC///CB,0.03,WUHU216DAVISVP2,2013-08-04 15:42:00,
2013-08-04 11:47:00,68.1,58.7,30.09,WNW,302,5.0,11.0,71,0.00,,OVC OVC///CB,0.03,WUHU216DAVISVP2,2013-08-04 15:47:00,
2013-08-04 11:52:00,67.7,58.7,30.09,NNE,28,1.0,10.0,72,0.00,,OVC OVC///CB,0.03,WUHU216DAVISVP2,2013-08-04 15:52:00,
2013-08-04 11:57:00,67.8,59.1,30.09,WNW,302,3.0,8.0,73,0.00,,OVC OVC///CB,0.03,WUHU216DAVISVP2,2013-08-04 15:57:00,
2013-08-04 12:02:00,68.5,59.0,30.09,WNW,285,3.0,10.0,71,0.00,,OVC OVC///CB,0.03,WUHU216DAVISVP2,2013-08-04 16:02:00,
2013-08-04 12:07:00,68.1,58.7,30.09,WNW,296,2.0,10.0,71,0.00,,OVC OVC///CB,0.03,WUHU216DAVISVP2,2013-08-04 16:07:00,
2013-08-04 12:12:00,67.5,58.1,30.09,WNW,301,0.0,12.0,71,0.00,,OVC OVC///CB,0.03,WUHU216DAVISVP2,2013-08-04 16:12:00,
2013-08-04 12:17:00,67.6,58.9,30.09,WNW,291,4.0,12.0,73,0.00,,OVC OVC///CB,0.03,WUHU216DAVISVP2,2013-08-04 16:17:00,
2013-08-04 12:22:00,68.1,58.7,30.09,NE,44,8.0,12.0,71,0.00,,OVC OVC///CB,0.03,WUHU216DAVISVP2,2013-08-04 16:22:00,
2013-08-04 12:27:00,68.6,59.1,30.09,North,3,3.0,12.0,71,0.00,,OVC OVC///CB,0.03,WUHU216DAVISVP2,2013-08-04 16:27:00,
2013-08-04 12:32:00,69.0,58.7,30.09,NNE,16,6.0,11.0,69,0.00,,OVC OVC///CB,0.03,WUHU216DAVISVP2,2013-08-04 16:32:00,
2013-08-04 12:37:00,68.6,58.8,30.09,North,352,5.0,11.0,70,0.00,,OVC OVC///CB,0.03,WUHU216DAVISVP2,2013-08-04 16:37:00,
2013-08-04 12:42:00,68.9,59.0,30.09,West,276,3.0,13.0,70,0.00,,OVC OVC///CB,0.03,WUHU216DAVISVP2,2013-08-04 16:42:00,
2013-08-04 12:47:00,69.7,59.0,30.08,WSW,253,1.0,13.0,68,0.00,,OVC OVC///CB,0.03,WUHU216DAVISVP2,2013-08-04 16:47:00,
2013-08-04 12:52:00,69.9,58.4,30.08,NE,50,5.0,12.0,66,0.00,,OVC OVC///CB,0.03,WUHU216DAVISVP2,2013-08-04 16:52:00,
2013-08-04 12:57:00,69.7,59.0,30.08,NNW,327,4.0,12.0,68,0.00,,OVC OVC///CB,0.03,WUHU216DAVISVP2,2013-08-04 16:57:00,
2013-08-04 13:02:00,69.4,59.1,30.08,North,350,5.0,12.0,69,0.00,,OVC OVC///CB,0.03,WUHU216DAVISVP2,2013-08-04 17:02:00,
2013-08-04 13:07:00,69.4,58.3,30.08,ENE,58,2.0,13.0,67,0.00,,OVC OVC///CB,0.03,WUHU216DAVISVP2,2013-08-04 17:07:00,
2013-08-04 13:12:00,69.5,58.4,30.08,NE,39,4.0,13.0,67,0.00,,OVC OVC///CB,0.03,WUHU216DAVISVP2,2013-08-04 17:12:00,
2013-08-04 13:17:00,69.8,58.7,30.08,NNW,347,0.0,12.0,67,0.00,,OVC OVC///CB,0.03,WUHU216DAVISVP2,2013-08-04 17:17:00,
2013-08-04 13:22:00,69.4,58.7,30.08,NE,53,8.0,11.0,68,0.00,,OVC OVC///CB,0.03,WUHU216DAVISVP2,2013-08-04 17:22:00,
2013-08-04 13:27:00,69.4,58.7,30.08,WNW,293,2.0,11.0,68,0.00,,OVC OVC///CB,0.03,WUHU216DAVISVP2,2013-08-04 17:27:00,
2013-08-04 13:32:00,69.0,57.5,30.07,WSW,257,1.0,13.0,66,0.00,,OVC OVC///CB,0.03,WUHU216DAVISVP2,2013-08-04 17:32:00,
2013-08-04 13:37:00,69.4,58.7,30.08,West,281,3.0,13.0,68,0.00,,OVC OVC///CB,0.03,WUHU216DAVISVP2,2013-08-04 17:37:00,
2013-08-04 13:42:00,70.3,60.0,30.08,NE,51,7.0,12.0,69,0.00,,OVC OVC///CB,0.03,WUHU216DAVISVP2,2013-08-04 17:42:00,
2013-08-04 13:47:00,70.3,60.0,30.08,WNW,291,2.0,12.0,69,0.00,,OVC OVC///CB,0.03,WUHU216DAVISVP2,2013-08-04 17:47:00,
2013-08-04 13:52:00,70.6,59.5,30.08,NE,36,10.0,14.0,67,0.00,,OVC OVC///CB,0.03,WUHU216DAVISVP2,2013-08-04 17:52:00,
2013-08-04 13:57:00,70.1,59.4,30.08,NE,43,4.0,17.0,68,0.00,,OVC OVC///CB,0.03,WUHU216DAVISVP2,2013-08-04 17:57:00,
2013-08-04 14:02:00,69.1,58.4,30.08,North,359,5.0,17.0,68,0.00,,OVC OVC///CB,0.03,WUHU216DAVISVP2,2013-08-04 18:02:00,
2013-08-04 14:07:00,69.7,59.0,30.08,WNW,302,4.0,16.0,68,0.00,,OVC OVC///CB,0.03,WUHU216DAVISVP2,2013-08-04 18:07:00,
2013-08-04 14:12:00,70.3,58.8,30.08,NNE,23,3.0,16.0,66,0.00,,OVC OVC///CB,0.03,WUHU216DAVISVP2,2013-08-04 18:12:00,
2013-08-04 14:17:00,71.0,58.6,30.08,NE,53,2.0,13.0,64,0.00,,OVC OVC///CB,0.03,WUHU216DAVISVP2,2013-08-04 18:17:00,
2013-08-04 14:22:00,71.1,57.8,30.08,SW,216,5.0,11.0,62,0.00,,OVC OVC///CB,0.03,WUHU216DAVISVP2,2013-08-04 18:22:00,
2013-08-04 14:27:00,70.9,58.5,30.08,North,1,8.0,12.0,64,0.00,,OVC OVC///CB,0.03,WUHU216DAVISVP2,2013-08-04 18:27:00,
2013-08-04 14:32:00,70.9,58.5,30.08,North,352,4.0,12.0,64,0.00,,OVC OVC///CB,0.03,WUHU216DAVISVP2,2013-08-04 18:32:00,
2013-08-04 14:37:00,71.5,59.1,30.08,ENE,66,6.0,11.0,64,0.00,,OVC OVC///CB,0.03,WUHU216DAVISVP2,2013-08-04 18:37:00,
2013-08-04 14:42:00,71.2,58.8,30.08,North,9,4.0,11.0,64,0.00,,OVC OVC///CB,0.03,WUHU216DAVISVP2,2013-08-04 18:42:00,
2013-08-04 14:47:00,70.7,58.3,30.08,NNW,330,5.0,10.0,64,0.00,,OVC OVC///CB,0.03,WUHU216DAVISVP2,2013-08-04 18:47:00,
2013-08-04 14:52:00,70.2,57.4,30.07,NNE,30,3.0,11.0,63,0.00,,OVC OVC///CB,0.03,WUHU216DAVISVP2,2013-08-04 18:52:00,
2013-08-04 14:57:00,70.2,58.2,30.08,NNE,27,3.0,12.0,65,0.00,,OVC OVC///CB,0.03,WUHU216DAVISVP2,2013-08-04 18:57:00,
2013-08-04 15:02:00,70.5,59.0,30.07,East,81,4.0,12.0,66,0.00,,OVC OVC///CB,0.03,WUHU216DAVISVP2,2013-08-04 19:02:00,
2013-08-04 15:07:00,70.9,58.9,30.07,NNW,340,4.0,12.0,65,0.00,,OVC OVC///CB,0.03,WUHU216DAVISVP2,2013-08-04 19:07:00,
2013-08-04 15:12:00,70.6,57.8,30.07,NNE,30,11.0,12.0,63,0.00,,OVC OVC///CB,0.03,WUHU216DAVISVP2,2013-08-04 19:12:00,
2013-08-04 15:17:00,70.2,58.2,30.07,North,352,3.0,12.0,65,0.00,,OVC OVC///CB,0.03,WUHU216DAVISVP2,2013-08-04 19:17:00,
2013-08-04 15:22:00,70.6,59.5,30.07,NNW,328,4.0,11.0,67,0.00,,OVC OVC///CB,0.03,WUHU216DAVISVP2,2013-08-04 19:22:00,
2013-08-04 15:27:00,70.9,58.5,30.07,NNW,327,6.0,11.0,64,0.00,,OVC OVC///CB,0.03,WUHU216DAVISVP2,2013-08-04 19:27:00,
2013-08-04 15:32:00,71.0,58.6,30.07,WSW,257,5.0,10.0,64,0.00,,OVC OVC///CB,0.03,WUHU216DAVISVP2,2013-08-04 19:32:00,
2013-08-04 15:37:00,71.0,58.1,30.07,NNE,18,9.0,11.0,63,0.00,,OVC OVC///CB,0.03,WUHU216DAVISVP2,2013-08-04 19:37:00,
2013-08-04 15:42:00,70.7,59.1,30.07,WNW,293,3.0,11.0,66,0.00,,OVC OVC///CB,0.03,WUHU216DAVISVP2,2013-08-04 19:42:00,
2013-08-04 15:47:00,71.0,57.2,30.07,NNE,23,1.0,11.0,61,0.00,,OVC OVC///CB,0.03,WUHU216DAVISVP2,2013-08-04 19:47:00,
2013-08-04 15:52:00,71.2,57.9,30.07,WNW,286,6.0,11.0,62,0.00,,OVC OVC///CB,0.03,WUHU216DAVISVP2,2013-08-04 19:52:00,
2013-08-04 15:57:00,71.3,57.5,30.07,North,6,4.0,11.0,61,0.00,,OVC OVC///CB,0.03,WUHU216DAVISVP2,2013-08-04 19:57:00,
2013-08-04 16:02:00,70.6,57.8,30.07,NNE,14,0.0,11.0,63,0.00,,OVC OVC///CB,0.03,WUHU216DAVISVP2,2013-08-04 20:02:00,
2013-08-04 16:07:00,70.2,56.9,30.07,East,79,1.0,11.0,62,0.00,,OVC OVC///CB,0.03,WUHU216DAVISVP2,2013-08-04 20:07:00,
2013-08-04 16:12:00,70.3,56.1,30.07,East,101,4.0,11.0,60,0.00,,OVC OVC///CB,0.03,WUHU216DAVISVP2,2013-08-04 20:12:00,
2013-08-04 16:17:00,70.9,56.7,30.07,NW,307,4.0,10.0,60,0.00,,OVC OVC///CB,0.03,WUHU216DAVISVP2,2013-08-04 20:17:00,
2013-08-04 16:22:00,71.1,56.4,30.07,NNE,23,6.0,10.0,59,0.00,,OVC OVC///CB,0.03,WUHU216DAVISVP2,2013-08-04 20:22:00,
2013-08-04 16:27:00,71.1,57.8,30.07,WSW,240,5.0,9.0,62,0.00,,OVC OVC///CB,0.03,WUHU216DAVISVP2,2013-08-04 20:27:00,
2013-08-04 16:32:00,71.1,57.8,30.07,NE,37,5.0,12.0,62,0.00,,OVC OVC///CB,0.03,WUHU216DAVISVP2,2013-08-04 20:32:00,
2013-08-04 16:37:00,71.0,57.7,30.07,NNW,345,4.0,12.0,62,0.00,,OVC OVC///CB,0.03,WUHU216DAVISVP2,2013-08-04 20:37:00,
2013-08-04 16:42:00,70.5,57.2,30.07,NNE,27,5.0,11.0,62,0.00,,OVC OVC///CB,0.03,WUHU216DAVISVP2,2013-08-04 20:42:00,
2013-08-04 16:47:00,70.7,57.4,30.07,ENE,70,3.0,11.0,62,0.00,,OVC OVC///CB,0.03,WUHU216DAVISVP2,2013-08-04 20:47:00,
2013-08-04 16:52:00,70.4,56.7,30.07,North,1,5.0,10.0,61,0.00,,OVC OVC///CB,0.03,WUHU216DAVISVP2,2013-08-04 20:52:00,
2013-08-04 16:57:00,70.1,56.8,30.07,NNE,18,9.0,10.0,62,0.00,,OVC OVC///CB,0.03,WUHU216DAVISVP2,2013-08-04 20:57:00,
2013-08-04 17:02:00,69.9,56.7,30.07,North,354,9.0,11.0,62,0.00,,OVC OVC///CB,0.03,WUHU216DAVISVP2,2013-08-04 21:02:00,
2013-08-04 17:07:00,69.8,56.1,30.07,North,6,3.0,11.0,61,0.00,,OVC OVC///CB,0.03,WUHU216DAVISVP2,2013-08-04 21:07:00,
2013-08-04 17:12:00,69.5,55.8,30.07,NNE,15,6.0,10.0,61,0.00,,OVC OVC///CB,0.03,WUHU216DAVISVP2,2013-08-04 21:12:00,
2013-08-04 17:17:00,69.6,56.4,30.07,NE,41,4.0,10.0,62,0.00,,OVC OVC///CB,0.03,WUHU216DAVISVP2,2013-08-04 21:17:00,
2013-08-04 17:22:00,69.7,56.5,30.08,NE,39,2.0,14.0,62,0.00,,OVC OVC///CB,0.03,WUHU216DAVISVP2,2013-08-04 21:22:00,
2013-08-04 17:27:00,69.8,57.0,30.08,SW,235,0.0,14.0,63,0.00,,OVC OVC///CB,0.03,WUHU216DAVISVP2,2013-08-04 21:27:00,
2013-08-04 17:32:00,70.0,56.7,30.08,NNW,339,2.0,13.0,62,0.00,,OVC OVC///CB,0.03,WUHU216DAVISVP2,2013-08-04 21:32:00,
2013-08-04 17:38:00,70.1,56.8,30.08,NE,44,3.0,13.0,62,0.00,,OVC OVC///CB,0.03,WUHU216DAVISVP2,2013-08-04 21:38:00,
2013-08-04 17:43:00,70.4,57.6,30.07,ENE,63,1.0,8.0,63,0.00,,OVC OVC///CB,0.03,WUHU216DAVISVP2,2013-08-04 21:43:00,
2013-08-04 17:48:00,70.5,56.8,30.08,NNE,26,3.0,10.0,61,0.00,,OVC OVC///CB,0.03,WUHU216DAVISVP2,2013-08-04 21:48:00,
2013-08-04 17:49:00,70.6,57.3,30.08,NW,319,2.0,10.0,62,0.00,,OVC OVC///CB,0.03,WUHU216DAVISVP2,2013-08-04 21:49:00,
2013-08-04 17:54:00,70.6,56.9,30.07,NE,56,2.0,10.0,61,0.00,,OVC OVC///CB,0.03,WUHU216DAVISVP2,2013-08-04 21:54:00,
2013-08-04 17:58:00,70.8,57.5,30.07,North,5,3.0,9.0,62,0.00,,OVC OVC///CB,0.03,WUHU216DAVISVP2,2013-08-04 21:58:00,
2013-08-04 18:04:00,71.1,56.9,30.07,ENE,67,3.0,9.0,60,0.00,,OVC OVC///CB,0.03,WUHU216DAVISVP2,2013-08-04 22:04:00,
2013-08-04 18:08:00,70.8,57.1,30.07,WNW,297,2.0,8.0,61,0.00,,OVC OVC///CB,0.03,WUHU216DAVISVP2,2013-08-04 22:08:00,
2013-08-04 18:14:00,71.1,56.4,30.07,NE,43,5.0,10.0,59,0.00,,OVC OVC///CB,0.03,WUHU216DAVISVP2,2013-08-04 22:14:00,
2013-08-04 18:19:00,71.0,56.8,30.07,WNW,283,1.0,10.0,60,0.00,,OVC OVC///CB,0.03,WUHU216DAVISVP2,2013-08-04 22:19:00,
2013-08-04 18:24:00,71.0,56.3,30.07,NNE,18,2.0,10.0,59,0.00,,OVC OVC///CB,0.03,WUHU216DAVISVP2,2013-08-04 22:24:00,
2013-08-04 18:29:00,71.0,56.8,30.07,WNW,290,2.0,8.0,60,0.00,,OVC OVC///CB,0.03,WUHU216DAVISVP2,2013-08-04 22:29:00,
2013-08-04 18:34:00,70.7,56.0,30.07,NE,37,1.0,8.0,59,0.00,,OVC OVC///CB,0.03,WUHU216DAVISVP2,2013-08-04 22:34:00,
2013-08-04 18:38:00,70.3,56.6,30.07,NNE,18,1.0,9.0,61,0.00,,OVC OVC///CB,0.03,WUHU216DAVISVP2,2013-08-04 22:38:00,
2013-08-04 18:43:00,70.4,57.1,30.07,North,6,0.0,9.0,62,0.00,,OVC OVC///CB,0.03,WUHU216DAVISVP2,2013-08-04 22:43:00,
2013-08-04 18:49:00,70.6,56.9,30.07,WNW,297,5.0,8.0,61,0.00,,OVC OVC///CB,0.03,WUHU216DAVISVP2,2013-08-04 22:49:00,
2013-08-04 18:54:00,70.4,56.7,30.08,WNW,302,3.0,8.0,61,0.00,,OVC OVC///CB,0.03,WUHU216DAVISVP2,2013-08-04 22:54:00,
2013-08-04 18:59:00,70.3,56.6,30.08,WNW,300,2.0,9.0,61,0.00,,OVC OVC///CB,0.03,WUHU216DAVISVP2,2013-08-04 22:59:00,
2013-08-04 19:04:00,70.2,57.4,30.08,WSW,255,0.0,9.0,63,0.00,,OVC OVC///CB,0.03,WUHU216DAVISVP2,2013-08-04 23:04:00,
2013-08-04 19:09:00,70.3,57.5,30.08,NNW,344,2.0,9.0,63,0.00,,OVC OVC///CB,0.03,WUHU216DAVISVP2,2013-08-04 23:09:00,
2013-08-04 19:14:00,69.8,57.4,30.07,WNW,301,3.0,9.0,64,0.00,,OVC OVC///CB,0.03,WUHU216DAVISVP2,2013-08-04 23:14:00,
2013-08-04 19:18:00,69.4,57.5,30.07,North,5,1.0,7.0,65,0.00,,OVC OVC///CB,0.03,WUHU216DAVISVP2,2013-08-04 23:18:00,
2013-08-04 19:24:00,69.2,57.3,30.07,WNW,283,0.0,7.0,65,0.00,,OVC OVC///CB,0.03,WUHU216DAVISVP2,2013-08-04 23:24:00,
2013-08-04 19:28:00,69.3,57.4,30.08,NW,309,4.0,7.0,65,0.00,,OVC OVC///CB,0.03,WUHU216DAVISVP2,2013-08-04 23:28:00,
2013-08-04 19:34:00,69.3,57.4,30.08,West,278,2.0,7.0,65,0.00,,OVC OVC///CB,0.03,WUHU216DAVISVP2,2013-08-04 23:34:00,
2013-08-04 19:39:00,69.0,57.1,30.08,WNW,300,1.0,6.0,65,0.00,,OVC OVC///CB,0.03,WUHU216DAVISVP2,2013-08-04 23:39:00,
2013-08-04 19:44:00,68.8,57.3,30.08,WNW,302,2.0,6.0,66,0.00,,OVC OVC///CB,0.03,WUHU216DAVISVP2,2013-08-04 23:44:00,
2013-08-04 19:49:00,68.8,57.3,30.08,North,360,1.0,6.0,66,0.00,,OVC OVC///CB,0.03,WUHU216DAVISVP2,2013-08-04 23:49:00,
2013-08-04 19:53:00,68.7,57.2,30.08,NNE,25,0.0,5.0,66,0.00,,OVC OVC///CB,0.03,WUHU216DAVISVP2,2013-08-04 23:53:00,
2013-08-04 19:59:00,68.5,57.5,30.08,NW,308,1.0,6.0,67,0.00,,OVC OVC///CB,0.03,WUHU216DAVISVP2,2013-08-04 23:59:00,
2013-08-04 20:04:00,68.2,57.6,30.08,North,358,0.0,6.0,68,0.00,,OVC OVC///CB,0.03,WUHU216DAVISVP2,2013-08-05 00:04:00,
2013-08-04 20:08:00,67.8,57.2,30.08,NE,44,0.0,6.0,68,0.00,,OVC OVC///CB,0.03,WUHU216DAVISVP2,2013-08-05 00:08:00,
2013-08-04 20:14:00,67.5,57.3,30.08,NNE,28,0.0,6.0,69,0.00,,OVC OVC///CB,0.03,WUHU216DAVISVP2,2013-08-05 00:14:00,
2013-08-04 20:19:00,67.1,57.3,30.08,NNE,31,0.0,4.0,70,0.00,,OVC OVC///CB,0.03,WUHU216DAVISVP2,2013-08-05 00:19:00,
2013-08-04 20:24:00,66.7,57.3,30.08,North,8,2.0,4.0,71,0.00,,OVC OVC///CB,0.03,WUHU216DAVISVP2,2013-08-05 00:24:00,
2013-08-04 20:28:00,66.4,57.0,30.08,North,352,0.0,4.0,71,0.00,,OVC OVC///CB,0.03,WUHU216DAVISVP2,2013-08-05 00:28:00,
2013-08-04 20:34:00,66.0,57.0,30.08,NNW,347,0.0,4.0,72,0.00,,OVC OVC///CB,0.03,WUHU216DAVISVP2,2013-08-05 00:34:00,
2013-08-04 20:39:00,65.7,57.1,30.09,North,360,0.0,4.0,73,0.00,,OVC OVC///CB,0.03,WUHU216DAVISVP2,2013-08-05 00:39:00,
2013-08-04 20:44:00,65.4,56.8,30.09,NNE,14,0.0,4.0,73,0.00,,OVC OVC///CB,0.03,WUHU216DAVISVP2,2013-08-05 00:44:00,
2013-08-04 20:49:00,65.0,56.8,30.09,NNW,331,0.0,2.0,74,0.00,,OVC OVC///CB,0.03,WUHU216DAVISVP2,2013-08-05 00:49:00,
2013-08-04 20:54:00,64.7,56.9,30.09,North,349,0.0,2.0,75,0.00,,OVC OVC///CB,0.03,WUHU216DAVISVP2,2013-08-05 00:54:00,
2013-08-04 20:59:00,64.4,56.9,30.09,North,10,0.0,2.0,76,0.00,,OVC OVC///CB,0.03,WUHU216DAVISVP2,2013-08-05 00:59:00,
2013-08-04 21:04:00,64.1,56.6,30.09,NE,36,0.0,2.0,76,0.00,,OVC OVC///CB,0.03,WUHU216DAVISVP2,2013-08-05 01:04:00,
2013-08-04 21:09:00,63.9,56.8,30.09,North,352,0.0,2.0,77,0.00,,OVC OVC///CB,0.03,WUHU216DAVISVP2,2013-08-05 01:09:00,
2013-08-04 21:13:00,63.7,56.6,30.09,NW,316,0.0,1.0,77,0.00,,OVC OVC///CB,0.03,WUHU216DAVISVP2,2013-08-05 01:13:00,
2013-08-04 21:19:00,63.4,56.6,30.09,NNW,345,0.0,1.0,78,0.00,,OVC OVC///CB,0.03,WUHU216DAVISVP2,2013-08-05 01:19:00,
2013-08-04 21:24:00,63.1,56.7,30.09,NNW,344,0.0,1.0,79,0.00,,OVC OVC///CB,0.03,WUHU216DAVISVP2,2013-08-05 01:24:00,
2013-08-04 21:29:00,63.0,56.6,30.10,NW,323,0.0,1.0,79,0.00,,OVC OVC///CB,0.03,WUHU216DAVISVP2,2013-08-05 01:29:00,
2013-08-04 21:34:00,62.8,56.4,30.10,NW,325,0.0,1.0,79,0.00,,OVC OVC///CB,0.03,WUHU216DAVISVP2,2013-08-05 01:34:00,
2013-08-04 21:38:00,62.4,56.3,30.10,NW,325,0.0,1.0,80,0.00,,OVC OVC///CB,0.03,WUHU216DAVISVP2,2013-08-05 01:38:00,
2013-08-04 21:43:00,62.1,56.4,30.10,NW,325,0.0,1.0,81,0.00,,OVC OVC///CB,0.03,WUHU216DAVISVP2,2013-08-05 01:43:00,
2013-08-04 21:48:00,61.7,56.3,30.10,NW,325,0.0,0.0,82,0.00,,OVC OVC///CB,0.03,WUHU216DAVISVP2,2013-08-05 01:48:00,
2013-08-04 21:54:00,61.4,56.0,30.10,NW,325,0.0,0.0,82,0.00,,OVC OVC///CB,0.03,WUHU216DAVISVP2,2013-08-05 01:54:00,
2013-08-04 21:59:00,61.4,56.3,30.10,NW,325,0.0,0.0,83,0.00,,OVC OVC///CB,0.03,WUHU216DAVISVP2,2013-08-05 01:59:00,
2013-08-04 22:04:00,61.2,56.2,30.10,NW,325,0.0,0.0,83,0.00,,OVC OVC///CB,0.03,WUHU216DAVISVP2,2013-08-05 02:04:00,
2013-08-04 22:09:00,60.8,56.1,30.09,NW,325,0.0,0.0,84,0.00,,OVC OVC///CB,0.03,WUHU216DAVISVP2,2013-08-05 02:09:00,
2013-08-04 22:14:00,60.5,56.1,30.09,NW,325,0.0,0.0,85,0.00,,OVC OVC///CB,0.03,WUHU216DAVISVP2,2013-08-05 02:14:00,
2013-08-04 22:18:00,60.3,55.9,30.09,NW,325,0.0,0.0,85,0.00,,OVC OVC///CB,0.03,WUHU216DAVISVP2,2013-08-05 02:18:00,
2013-08-04 22:24:00,60.0,55.9,30.09,NW,325,0.0,0.0,86,0.00,,OVC OVC///CB,0.03,WUHU216DAVISVP2,2013-08-05 02:24:00,
2013-08-04 22:29:00,60.0,56.2,30.10,NW,325,0.0,0.0,87,0.00,,OVC OVC///CB,0.03,WUHU216DAVISVP2,2013-08-05 02:29:00,
2013-08-04 22:34:00,60.1,56.3,30.10,NW,325,0.0,0.0,87,0.00,,OVC OVC///CB,0.03,WUHU216DAVISVP2,2013-08-05 02:34:00,
2013-08-04 22:38:00,60.1,56.3,30.10,NW,325,0.0,0.0,87,0.00,,OVC OVC///CB,0.03,WUHU216DAVISVP2,2013-08-05 02:38:00,
2013-08-04 22:44:00,60.1,56.3,30.10,NW,325,0.0,0.0,87,0.00,,OVC OVC///CB,0.03,WUHU216DAVISVP2,2013-08-05 02:44:00,
2013-08-04 22:49:00,60.1,56.3,30.10,NW,325,0.0,0.0,87,0.00,,OVC OVC///CB,0.03,WUHU216DAVISVP2,2013-08-05 02:49:00,
2013-08-04 22:54:00,60.1,56.3,30.10,NW,325,0.0,0.0,87,0.00,,OVC OVC///CB,0.03,WUHU216DAVISVP2,2013-08-05 02:54:00,
2013-08-04 22:59:00,60.0,56.2,30.10,NW,325,0.0,0.0,87,0.00,,OVC OVC///CB,0.03,WUHU216DAVISVP2,2013-08-05 02:59:00,
2013-08-04 23:04:00,59.9,56.4,30.10,NW,325,0.0,0.0,88,0.00,,OVC OVC///CB,0.03,WUHU216DAVISVP2,2013-08-05 03:04:00,
2013-08-04 23:09:00,59.8,56.3,30.10,NW,325,0.0,0.0,88,0.00,,OVC OVC///CB,0.03,WUHU216DAVISVP2,2013-08-05 03:09:00,
2013-08-04 23:14:00,59.7,56.2,30.10,NW,325,0.0,0.0,88,0.00,,OVC OVC///CB,0.03,WUHU216DAVISVP2,2013-08-05 03:14:00,
2013-08-04 23:19:00,59.6,56.5,30.10,NW,325,0.0,0.0,89,0.00,,OVC OVC///CB,0.03,WUHU216DAVISVP2,2013-08-05 03:19:00,
2013-08-04 23:23:00,59.4,56.3,30.10,NW,325,0.0,0.0,89,0.00,,OVC OVC///CB,0.03,WUHU216DAVISVP2,2013-08-05 03:23:00,
2013-08-04 23:29:00,59.1,56.3,30.10,NW,325,0.0,0.0,90,0.00,,OVC OVC///CB,0.03,WUHU216DAVISVP2,2013-08-05 03:29:00,
2013-08-04 23:34:00,58.9,56.1,30.10,NW,325,0.0,0.0,90,0.00,,OVC OVC///CB,0.03,WUHU216DAVISVP2,2013-08-05 03:34:00,
2013-08-04 23:39:00,58.6,56.1,30.10,NW,325,0.0,0.0,91,0.00,,OVC OVC///CB,0.03,WUHU216DAVISVP2,2013-08-05 03:39:00,
2013-08-04 23:44:00,58.3,55.8,30.10,NW,325,0.0,0.0,91,0.00,,OVC OVC///CB,0.03,WUHU216DAVISVP2,2013-08-05 03:44:00,
2013-08-04 23:49:00,58.2,56.0,30.10,NW,325,0.0,0.0,92,0.00,,OVC OVC///CB,0.03,WUHU216DAVISVP2,2013-08-05 03:49:00,
2013-08-04 23:53:00,58.0,55.8,30.09,NW,325,0.0,0.0,92,0.00,,OVC OVC///CB,0.03,WUHU216DAVISVP2,2013-08-05 03:53:00,
2013-08-04 23:59:00,57.9,56.0,30.09,NW,325,0.0,0.0,93,0.00,,OVC OVC///CB,0.03,WUHU216DAVISVP2,2013-08-05 03:59:00,